This demonstration page uses our WeatherBlox Daily Observations layout. Learn more.

Hourly Observations for October 3, 2020

Temp ( °F °C ) Dew Point ( °F °C ) Humidity (%) Winds ( mph kmh ) Pressure ( in mb ) Visibility ( mi km ) Precip ( " mm )
12:53 am 00:53 Mostly Cloudy 43 6.1 34 1.1 71 71 WNW 3 6 30.13 1020 10 16.0934 0 0
1:53 am 01:53 Cloudy 45 7.2 35 1.7 68 68 NW 7 11 30.12 1020 10 16.0934 0 0
2:53 am 02:53 Mostly Cloudy 47 8.3 35 1.7 63 63 WNW 9 15 30.1 1019 10 16.0934 0 0
3:53 am 03:53 Mostly Cloudy 48 8.9 34 1.1 58 58 WNW 9 15 30.1 1019 10 16.0934 0 0
4:53 am 04:53 Clear 44 6.7 34 1.1 68 68 NW 7 11 30.13 1020 10 16.0934 0 0
5:53 am 05:53 Clear 41 5 33 0.6 73 73 undefined N/A 30.18 1022 10 16.0934 0 0
6:53 am 06:53 Clear 37 2.8 31 -0.6 79 79 NNW 5 7 30.22 1023 10 16.0934 0 0
7:53 am 07:53 Mostly Cloudy 47 8.3 33 0.6 59 59 WNW 8 13 30.2 1023 10 16.0934 0 0
8:53 am 08:53 Mostly Cloudy 49 9.4 30 -1.1 48 48 WNW 10 17 30.21 1023 10 16.0934 0 0
9:53 am 09:53 Mostly Sunny 58 14.4 32 0 38 38 W 6 9 30.19 1023 10 16.0934 0 0
10:53 am 10:53 Sunny 63 17.2 31 -0.6 30 30 NNW 6 9 30.19 1022 10 16.0934 0 0
11:53 am 11:53 Mostly Cloudy 64 17.8 32 0 30 30 NW 8 13 30.18 1022 10 16.0934 0 0
12:53 pm 12:53 Mostly Cloudy 65 18.3 32 0 29 29 WNW 9 15 30.17 1022 10 16.0934 0 0
1:53 pm 13:53 Mostly Sunny 69 20.6 32 0 25 25 W 12 19 30.13 1020 10 16.0934 0 0
2:53 pm 14:53 Partly Cloudy 69 20.6 31 -0.6 24 24 VRB 5 7 30.1 1019 10 16.0934 0 0
3:53 pm 15:53 Partly Cloudy 70 21.1 30 -1.1 23 23 W 3 6 30.08 1019 10 16.0934 0 0
4:53 pm 16:53 Sunny 70 21.1 29 -1.7 22 22 NW 7 11 30.08 1019 10 16.0934 0 0
5:53 pm 17:53 Sunny 63 17.2 31 -0.6 30 30 NW 6 9 30.11 1020 10 16.0934 0 0
6:53 pm 18:53 Clear 55 12.8 31 -0.6 40 40 NNE 9 15 30.15 1021 10 16.0934 0 0
7:53 pm 19:53 Clear 55 12.8 32 0 42 42 Calm 30.14 1021 10 16.0934 0 0
8:53 pm 20:53 Clear 53 11.7 31 -0.6 43 43 SE 3 6 30.15 1021 10 16.0934 0 0
9:53 pm 21:53 Clear 51 10.6 31 -0.6 46 46 E 6 9 30.14 1021 10 16.0934 0 0
10:53 pm 22:53 Clear 50 10 31 -0.6 48 48 Calm 30.13 1020 10 16.0934 0 0
11:53 pm 23:53 Clear 49 9.4 32 0 52 52 Calm 30.13 1020 10 16.0934 0 0

Powered by AerisWeather